RH
66 69 69 72 73 73 74 74 74 74 74 74 74 74 76 76 74 23 17 26 34 62 58 15 10 24 24 25 19 18 21 19 14 11 9 8 8 7 9 12 12 12 12 13 18
71 72 72 73 74 75 75 75 75 75 75 76 75 75 76 76 39 26 43 47 52 55 20 14 9 14 24 23 24 22 22 18 13 12 11 8 8 8 11 13 14 13 14 12 14
72 73 73 74 75 76 76 76 77 77 77 77 76 77 77 64 25 26 59 51 50 37 19 17 16 9 24 21 20 23 23 15 14 13 12 11 9 7 11 13 13 13 14 14 15
73 73 74 75 76 77 77 78 79 79 80 78 78 77 75 36 11 22 44 48 51 23 17 23 22 16 14 19 18 24 20 19 15 14 15 13 11 11 9 10 10 11 13 14 15
73 74 75 76 77 77 78 79 81 82 82 80 79 75 48 21 14 13 43 34 22 20 15 15 23 18 14 13 14 19 19 18 17 17 16 15 14 13 12 11 10 12 15 17 15
74 75 76 76 77 78 79 83 85 85 84 84 77 76 36 15 15 18 21 22 22 19 17 15 18 18 16 14 14 14 14 16 16 19 20 23 20 17 16 14 15 17 18 16 14
74 75 76 76 77 78 80 85 88 88 86 82 74 50 37 19 17 19 21 23 22 23 20 16 14 16 20 19 13 15 18 16 16 17 21 22 26 23 16 15 16 18 17 16 16
73 77 77 78 79 79 81 86 89 85 79 77 74 43 27 18 20 20 17 18 18 23 24 18 17 14 16 19 19 18 17 20 14 15 16 24 32 20 16 16 17 16 15 14 14
74 76 78 79 80 80 84 89 85 77 76 74 50 38 18 30 16 16 17 23 20 18 23 20 20 16 12 20 22 18 18 17 15 12 15 18 25 18 14 14 15 15 14 13 13
76 76 78 79 79 82 88 89 78 76 55 42 37 40 18 17 16 18 17 20 24 22 24 23 19 17 12 14 20 16 16 16 15 12 13 16 19 16 13 14 15 14 14 14 15
76 78 79 78 80 85 66 27 28 29 23 29 24 28 18 16 15 18 17 20 21 24 26 19 19 16 14 12 14 16 16 15 15 12 14 17 18 16 14 14 15 16 16 16 16
77 76 79 79 81 85 53 28 36 37 40 24 25 26 24 21 26 16 18 24 24 26 20 24 25 17 13 12 13 18 22 22 18 16 17 19 19 17 15 15 15 16 16 16 16
82 80 79 78 82 61 32 34 30 34 38 26 21 21 20 17 21 20 18 22 27 25 23 26 20 16 18 18 21 21 23 24 21 19 20 22 24 21 17 17 17 16 17 17 18
83 80 83 80 68 36 32 34 32 38 36 22 21 22 18 17 23 14 18 22 25 28 26 24 18 20 21 20 17 22 16 19 22 24 27 21 27 20 17 17 16 16 16 15 16
84 81 82 80 48 31 39 34 34 39 33 20 21 16 17 22 20 16 16 20 29 28 28 28 25 24 23 18 16 20 15 20 22 24 26 23 23 21 17 18 16 16 14 14 14
85 84 80 62 48 37 36 38 38 40 30 24 21 23 22 18 18 16 18 16 22 35 30 31 24 24 21 15 15 17 18 19 24 26 32 25 23 20 16 15 13 12 11 12 11
86 86 73 37 36 34 36 34 41 34 24 26 28 26 25 23 22 21 23 23 34 54 35 30 29 23 22 24 18 19 24 26 29 34 39 21 22 21 16 12 12 13 13 12 13
88 85 74 37 36 42 36 32 49 31 27 26 29 28 30 26 26 27 26 25 25 42 43 50 42 36 27 25 27 24 24 24 27 23 20 19 25 17 14 12 12 14 14 16 18
90 46 40 39 40 38 35 42 44 34 33 37 34 32 27 27 28 29 27 26 28 31 54 47 44 24 30 24 22 27 36 25 22 21 16 14 19 15 13 14 14 16 19 23 30
47 42 36 38 44 41 39 49 37 33 35 37 52 35 40 33 35 32 30 25 27 25 33 39 53 27 30 29 28 33 40 76 23 33 26 16 18 16 15 15 14 19 20 27 41
48 39 37 36 40 33 62 33 38 34 36 45 45 44 40 45 34 35 35 28 28 29 28 32 45 38 30 39 31 60 60 56 33 21 22 18 15 14 20 22 22 19 20 36 47
48 34 38 33 36 47 39 33 55 41 38 43 43 45 47 43 47 37 40 38 28 31 39 32 49 46 32 24 28 41 57 64 79 44 21 27 23 20 22 19 22 20 20 35 62
55 42 34 36 67 44 26 33 38 44 43 45 51 45 43 50 70 46 43 32 33 38 42 45 48 48 28 35 32 31 28 46 44 56 54 23 22 20 16 17 20 22 19 23 63
48 49 33 32 37 41 40 41 44 38 42 45 52 44 50 57 47 67 52 40 38 40 52 60 57 51 46 31 30 34 31 26 32 47 36 27 22 21 19 18 20 24 19 22 63
45 46 55 48 52 50 48 48 49 53 45 45 50 51 62 79 54 58 44 44 51 58 64 74 85 49 39 33 29 32 29 28 33 29 34 33 22 18 19 20 23 24 19 18 57
67 68 54 52 54 57 55 42 44 42 42 45 54 51 56 73 66 74 57 68 97 75 80 88 89 57 53 38 29 32 29 26 25 27 28 25 24 19 20 18 21 21 18 19 26
68 69 83 60 56 65 59 53 53 50 43 41 51 60 62 52 46 45 50 58 73 97 98 97 94 68 67 35 32 38 27 24 23 23 26 29 24 19 19 20 22 24 21 20 24
Wind_Speed
13 13 13 13 13 13 13 13 13 13 13 14 15 16 18 19 21 12 9 8 8 15 15 11 11 8 12 16 17 14 13 17 21 19 15 6 15 10 7 6 7 3 3 10 6
14 14 14 15 15 15 14 14 14 13 13 14 14 15 16 17 17 2 8 5 11 11 8 8 13 12 14 18 12 16 17 26 19 14 11 15 15 10 9 16 14 9 5 4 5
15 15 16 16 16 16 15 15 14 13 14 14 14 14 15 16 7 6 11 10 11 15 6 8 9 14 19 16 23 22 26 21 22 17 15 18 18 13 13 17 17 14 14 2 4
17 17 18 18 18 18 17 15 15 15 15 15 13 12 13 10 2 6 5 10 12 10 6 4 8 17 19 27 20 26 25 26 24 15 16 21 20 24 21 19 17 9 10 13 13
17 18 18 18 18 18 18 16 15 14 14 14 11 9 10 5 5 3 7 9 5 4 6 7 10 13 25 19 25 28 29 23 22 22 17 18 25 24 26 22 20 20 17 19 19
17 18 18 19 19 19 20 19 16 15 14 13 8 7 6 3 5 4 10 11 6 6 4 7 9 9 16 22 24 17 26 30 27 19 22 23 28 22 28 23 22 19 22 21 21
18 19 20 20 20 20 20 18 16 15 11 10 6 7 5 8 6 10 9 8 8 8 8 5 11 11 5 15 20 24 26 24 23 29 26 19 30 37 27 24 23 23 24 23 23
20 20 21 22 21 22 22 20 19 13 7 6 7 5 4 0 8 9 10 11 4 8 10 8 8 14 17 16 15 17 22 25 32 24 24 23 29 36 27 27 27 28 26 25 26
19 18 20 21 21 22 23 22 19 4 5 9 8 6 3 3 10 8 10 11 12 10 5 8 7 15 14 17 17 21 25 32 29 28 24 22 37 36 30 23 27 22 25 24 23
19 19 20 20 20 20 23 20 6 11 8 7 4 6 3 11 15 16 8 8 10 7 8 10 9 13 15 17 24 27 26 27 28 23 27 30 36 29 22 18 27 25 21 20 18
21 21 20 20 20 19 16 6 6 8 3 7 6 5 10 13 14 6 7 8 5 8 13 8 12 14 18 22 28 24 28 24 21 22 24 28 33 30 28 28 28 24 22 23 24
22 22 21 19 19 19 10 4 5 5 9 9 9 11 11 6 12 9 3 7 10 11 10 11 17 15 16 19 23 25 27 28 19 16 22 25 30 28 27 25 27 26 25 25 25
21 21 21 18 17 9 4 6 3 8 8 3 3 7 5 10 9 9 4 10 11 13 12 17 16 13 12 16 21 23 26 25 24 15 21 20 24 25 21 23 23 24 24 26 26
22 21 18 16 9 3 2 2 6 6 7 7 3 3 6 11 9 12 5 7 9 11 13 14 13 16 17 19 19 24 23 22 25 24 21 20 19 23 24 28 30 28 26 27 26
22 21 14 6 5 2 5 5 5 5 6 3 2 4 9 6 9 2 7 7 14 16 14 19 19 13 17 18 19 17 21 19 20 23 25 30 18 17 19 23 22 21 24 24 24
25 22 6 5 3 3 6 3 6 8 2 2 2 8 9 6 9 5 9 10 11 13 15 19 14 16 17 13 11 15 14 19 19 15 20 22 19 18 18 23 18 17 18 20 19
25 16 5 1 5 3 5 5 7 7 3 2 7 10 15 8 11 8 13 11 7 9 10 15 13 16 21 20 15 14 16 13 18 20 19 20 18 18 9 9 2 10 10 9 12
25 7 5 2 5 5 5 7 6 4 5 8 8 17 9 10 9 13 11 12 2 10 13 8 10 8 8 23 19 22 19 16 19 16 20 25 15 16 12 17 6 7 9 10 10
24 3 3 3 2 5 8 5 3 4 5 9 15 8 8 4 11 9 11 9 5 6 9 12 7 10 12 11 19 23 15 25 24 22 18 18 24 26 10 10 5 1 8 12 12
6 3 3 6 4 7 5 4 4 3 8 9 9 6 14 16 13 8 9 4 7 6 4 9 14 10 4 12 10 23 1 8 15 16 18 15 23 13 22 23 4 7 13 15 13
5 5 6 6 5 4 3 5 8 5 8 6 10 16 14 12 12 10 6 12 5 7 13 15 9 9 14 6 15 4 8 14 15 18 9 13 14 20 14 11 7 11 15 15 12
5 4 4 5 6 2 4 8 7 7 5 8 9 12 11 13 11 15 13 8 12 12 14 16 7 13 15 6 11 10 18 4 6 17 13 11 5 11 18 10 11 15 17 16 10
7 4 2 6 3 6 7 9 7 9 5 4 9 8 14 17 9 8 12 11 10 14 7 6 8 10 11 8 10 11 15 15 22 4 18 12 5 14 9 8 13 17 18 17 9
5 4 3 2 2 6 11 5 5 3 11 6 10 13 13 13 13 11 18 13 13 14 17 10 14 15 14 18 9 8 10 13 11 11 14 16 16 13 10 11 14 16 18 17 9
2 3 4 4 4 9 9 7 9 7 4 9 7 10 11 11 19 23 21 15 17 18 17 6 11 16 18 21 18 17 18 16 17 18 19 19 21 20 16 15 16 17 18 16 10
5 4 4 12 8 8 1 5 9 6 12 13 13 14 15 19 21 27 26 20 9 7 17 6 6 14 19 19 20 22 20 19 20 20 19 23 28 22 20 18 20 18 15 14 11
1 1 2 7 6 6 5 8 15 17 10 9 11 16 21 23 20 25 24 24 18 9 8 8 6 10 15 15 14 17 20 21 22 21 21 23 24 21 20 18 18 16 16 13 11
Wind_Direction
356 350 346 343 342 339 335 331 329 326 324 317 317 319 319 322 309 284 269 7 316 317 309 277 261 231 231 229 221 235 239 241 242 233 246 264 253 217 264 266 205 186 71 74 102
347 343 343 341 338 336 332 329 324 322 318 312 312 312 313 319 307 286 82 22 342 325 300 271 231 215 213 215 214 214 228 237 241 251 238 240 246 245 231 215 220 213 137 70 154
344 341 340 338 335 333 330 327 323 319 314 310 309 310 306 307 266 69 183 0 343 312 312 289 267 232 226 223 215 219 240 241 238 228 234 250 250 228 244 234 227 225 178 208 283
343 341 339 337 335 332 328 325 321 319 315 310 304 299 306 284 335 90 354 338 323 292 291 274 241 219 229 228 223 240 244 243 256 225 237 240 248 250 247 242 259 258 264 272 265
342 339 338 335 332 328 324 321 318 313 305 300 298 302 285 241 55 91 308 333 319 302 258 264 253 236 239 233 231 239 243 246 243 256 234 254 250 252 250 246 248 258 266 266 266
343 339 336 334 331 328 324 320 317 314 305 293 289 280 294 61 4 322 308 309 287 313 294 243 250 264 276 259 247 239 244 250 255 234 246 243 255 249 244 247 254 259 261 265 268
343 338 336 334 331 326 320 315 316 313 288 265 236 251 265 26 326 321 305 294 299 287 300 301 258 244 287 256 256 259 263 259 244 243 238 245 255 247 252 252 256 258 259 262 265
343 339 337 333 331 326 321 318 317 311 278 202 203 256 280 73 323 294 332 326 229 251 275 293 237 243 255 268 280 252 245 247 236 228 239 225 254 245 241 251 253 255 259 260 260
340 337 334 331 327 323 318 315 308 253 177 163 211 278 80 170 323 350 320 312 315 276 238 270 230 239 230 234 250 234 239 230 247 230 221 221 244 255 257 254 247 253 258 261 262
336 333 331 328 325 321 317 302 137 158 190 218 234 239 220 344 338 323 304 301 297 279 231 227 235 239 226 231 231 232 234 245 260 237 228 224 242 248 265 246 250 245 252 250 256
337 334 332 330 325 323 314 198 229 184 283 316 335 301 290 329 312 292 355 313 260 249 260 231 259 256 257 242 252 267 268 255 273 242 255 236 245 251 248 247 255 250 251 260 263
336 335 331 328 324 318 280 29 44 356 295 284 260 261 273 292 299 311 315 298 308 281 264 250 246 263 277 273 264 245 253 256 259 266 244 240 249 250 250 253 251 253 255 262 265
334 332 328 324 318 283 356 44 47 331 263 266 257 282 303 298 297 286 288 312 287 283 268 263 276 301 268 255 250 254 247 249 249 244 237 249 252 253 248 252 256 257 257 258 260
335 333 326 319 282 4 115 111 308 307 268 140 189 152 291 311 250 303 244 299 269 284 299 278 287 270 256 255 250 247 250 246 250 247 244 226 256 246 241 240 240 245 248 255 259
336 333 325 294 342 272 49 305 318 223 272 71 145 4 297 288 303 343 269 298 281 290 281 273 283 267 245 258 248 262 243 247 247 239 248 245 257 262 254 255 253 252 250 253 256
338 336 315 169 211 6 321 303 205 231 231 144 279 324 311 313 310 299 290 285 269 279 269 281 273 268 259 270 267 258 255 249 241 268 244 238 242 258 253 247 250 253 246 254 260
336 336 247 248 19 322 308 215 246 271 101 67 332 323 317 303 315 330 321 306 302 304 307 314 261 243 232 254 243 235 234 232 221 222 240 233 233 243 329 104 29 268 232 280 279
331 310 167 309 316 301 255 242 265 22 314 340 316 308 296 339 333 328 308 309 217 278 301 318 309 346 305 231 236 238 232 238 232 228 228 222 234 226 233 260 284 254 268 278 290
313 189 205 45 329 282 274 258 304 344 348 319 311 291 309 283 312 315 317 315 314 353 320 312 302 300 288 276 231 247 224 262 261 282 241 216 211 257 250 246 211 325 339 327 314
311 256 97 328 296 268 269 284 284 285 306 302 301 298 313 325 310 323 311 323 303 300 324 312 301 315 345 271 222 249 7 291 239 256 234 222 209 223 207 227 186 20 350 347 338
275 253 66 329 254 260 277 330 310 316 296 286 298 295 300 317 299 299 282 297 305 312 307 289 271 286 256 228 251 264 222 236 255 240 258 226 205 198 122 98 59 15 4 4 347
313 264 39 304 247 232 280 343 337 296 276 261 279 281 294 301 289 289 286 264 302 305 297 293 289 280 279 250 200 197 241 279 270 227 248 304 75 97 121 96 29 9 8 21 6
322 301 87 292 342 328 323 294 268 288 295 287 293 285 302 287 297 290 287 290 288 289 292 334 246 278 259 163 204 232 212 203 237 279 279 236 168 164 152 74 27 360 358 358 34
302 302 145 16 13 319 334 304 307 252 279 272 268 299 292 292 274 275 281 282 277 272 288 285 260 260 280 302 310 290 274 276 270 278 254 244 254 173 231 337 351 342 339 350 45
339 47 3 305 336 321 296 282 302 318 291 294 282 258 299 294 298 288 281 292 290 277 279 257 247 258 266 277 277 276 271 261 252 261 264 264 264 257 270 312 325 316 316 332 52
345 345 344 291 304 299 40 291 298 320 310 284 284 298 303 284 282 290 290 291 263 263 216 205 267 263 267 260 256 265 265 260 254 250 253 260 261 268 287 295 288 289 303 319 6
114 116 264 304 309 312 308 330 314 314 307 272 287 303 293 289 293 289 287 280 267 241 211 188 223 252 253 243 256 264 260 253 251 247 241 246 257 266 266 270 279 290 296 304 315